カタログに戻る

THORAD DELTA 1 DEB

運用中SSO
NORAD 8401·DEBRIS·🇺🇸 United States

打ち上げ Nov 15, 1974 から Vandenberg Space Force Base

Loading…

次のパス (今後24時間)

TLE

最新Source: Space-Track

元期: Sep 14, 2026, 10:31 UTC

1 08401U 74089CD  26257.43850760 -.00000066  00000-0 -10814-3 0  9997
2 08401 101.4055 332.1784 0067636 237.9181 186.2027 12.67233900396599

AllMySatでTHORAD DELTA 1 DEBをリアルタイム追跡

Download on the App Store